1st Responders/1st Detectors/Storm Spotters Weather Summary for Bath County, KY

Forecast Maps


Reg. NEXRAD Animation


National Fire Danger: Day 1 & 2 Map

Current NWS Watch/Warnings

SPC Convective Day 1 Outlook


Day 2 Outlook

(Click images to enlarge|Page will refresh every 5 minutes)
UK Ag. Weather Center Desktop Severe Weather Service[HERE]
Bath County, KY Hazardous Weather Outlook Webcast
(9 AM to 9 PM Mon-Fri)
[Fast]
[Dial-up]


UKAWC 1st Detectors/1st Responders Precision Weather Forecast For BATH County, Kentucky
(based on the NWS County Digital Forecast)

ISSUED AT 19:00 UTC ON SUNDAY OCT 22 2017
DAY SUNDAY
EDT 3HR 4P 5P 6P 7P
MAX/MIN -- -- -- 77°
TEMP 76° 76° 74° 70°
SKY COVER 25% 27% 29% 30%
Clouds
DEW PT 50° 50° 50° 52°
RH 41% 39% 45% 50%
POP 12HR -- -- -- --
RAIN/SNOW (liq.equ) -- -- -- --
SNOWFALL -- -- -- --
WIND SPEED(MPH) 7 7 7 6
WIND Gust(MPH) 9 13 9 7
WIND DIR S S S S
DEW -- -- -- --
HeatIndex 76 76 74 70
Rain Showers -- -- -- --
WIND CHILL -- -- -- --
SPRAY COND
DRY COND
LIVESTOCK COLDSTRESS
LIVESTOCK HEATSTRESS 70.42 70.23 69.40 66.92



DAY MONDAY TUESDAY WEDNESDAY THURSDAY FRIDAY SATURDAY
EDT 6HR 8P 9P 10P 11P MIDN 1A 2A 3A 4A 5A 6A 7A 8A 9A 10A 11A NOON 1P 2P 3P 4P 5P 6P 7P 8P 9P 10P 11P MIDN 1A 2A 3A 5A 8A 11A 2P 5P 8P 2A 8A 2P 8P 2A 8A 2P 8P 2A 8A 2P 8P 2A 8A 2P 8P
MAX/MIN -- -- -- -- -- -- -- -- -- -- -- -- 59° -- -- -- -- -- -- -- -- -- -- 67° -- -- -- -- -- -- -- -- -- 47° -- -- 58° -- -- 38° 52° -- -- 36° 61° -- -- 45° 67° -- -- 43° 59° --
TEMP 67° 65° 63° 63° 61° 61° 61° 61° 61° 61° 61° 59° 59° 61° 63° 65° 65° 67° 67° 67° 67° 67° 65° 63° 59° 58° 58° 56° 56° 54° 52° 52° 49° 47° 54° 58° 58° 49° 43° 40° 52° 47° 41° 38° 61° 52° 47° 47° 65° 58° 47° 45° 58° 54°
SKY COVER 32% 35% 37% 40% 51% 63% 75% 79% 84% 89% 90% 92% 93% 95% 98% 100% 100% 100% 100% 100% 100% 100% 97% 95% 92% 90% 87% 86% 81% 71% 65% 64% 61% 67% 49% 53% 65% 56% 41% 65% 57% 55% 26% 15% 8% 7% 10% 19% 33% 48% 63% 67% 64% 54%
Clouds
DEW PT 52° 54° 54° 54° 54° 56° 56° 56° 56° 56° 56° 58° 58° 58° 59° 61° 61° 61° 61° 61° 61° 61° 59° 58° 56° 56° 54° 54° 52° 50° 49° 49° 47° 45° 47° 43° 40° 38° 36° 36° 36° 34° 34° 34° 40° 40° 41° 43° 47° 47° 43° 41° 43° 41°
RH 58% 65% 70% 75% 77% 80% 83% 83% 86% 86% 86% 93% 93% 93% 90% 86% 86% 83% 83% 81% 80% 81% 84% 83% 90% 89% 90% 89% 89% 89% 89% 89% 96% 96% 77% 59% 53% 68% 78% 84% 53% 62% 76% 85% 47% 63% 79% 86% 52% 66% 85% 88% 55% 63%
POP 12HR 1% -- -- -- -- -- -- -- -- -- -- -- 51% -- -- -- -- -- -- -- -- -- -- -- 95% -- -- -- -- -- -- -- -- 80% -- -- -- 32% -- 12% -- 15% -- 14% -- 2% -- 5% -- 27% -- 38% -- 38%
RAIN/SNOW (liq.equ) 0.00in -- -- -- -- -- 0.00in -- -- -- -- -- 0.09in -- -- -- -- -- 0.68in -- -- -- -- -- 0.44in -- -- -- -- -- 0.12in -- -- 0.03in -- 0.00in -- 0.00in -- -- -- -- -- -- -- -- -- -- -- -- -- -- -- --
SNOWFALL 0in -- -- -- -- -- 0in -- -- -- -- -- 0in -- -- -- -- -- 0in -- -- -- -- -- 0in -- -- -- -- -- 0in -- -- 0in -- 0in -- 0in -- -- -- -- -- -- -- -- -- -- -- -- -- -- -- --
WIND SPEED(MPH) 6 6 6 6 6 6 6 6 5 5 5 6 6 7 7 7 7 7 7 7 7 7 7 7 7 7 6 6 6 6 6 6 6 6 7 8 8 7 6 6 8 6 5 5 6 5 6 7 8 7 5 5 6 5
WIND DIR S S S S S S S S SE SE SE SE SE SE SE SE SE SE SE S S S SW SW SW SW W W W W W W W SW W W W W W W W W SW SW SW S S S SW S SW SW W W
HeatIndex 67 65 63 63 61 61 61 61 61 61 61 59 59 61 63 65 65 67 67 67 67 67 65 63 59 58 58 56 56 54 52 52 49 47 54 58 58 49 39 35 52 47 39 35 61 52 47 47 65 58 47 42 58 54
Rain Showers -- -- -- -- -- Slight Chance Slight Chance Chance Chance Chance Chance Chance Likely Likely Definite Definite Definite Definite Definite Definite Definite Definite Definite Definite Definite Definite Likely Likely Likely Likely Chance Chance Chance Chance Chance Slight Chance Slight Chance -- -- -- -- -- -- -- -- -- -- -- -- Chance Chance Chance Chance Slight Chance
WIND CHILL -- -- -- -- -- -- -- -- -- -- -- -- -- -- -- -- -- -- -- -- -- -- -- -- -- -- -- -- -- -- -- -- -- -- -- -- -- -- 39° 36° -- -- 38° 35° -- -- -- -- -- -- -- 43° -- --
SPRAY COND
DRY COND
LIVESTOCK COLDSTRESS
LIVESTOCK HEATSTRESS 65.11 63.81 62.31 62.42 60.72 60.76 60.79 60.79 60.83 60.83 60.83 58.99 58.99 60.92 62.77 64.52 64.52 66.23 66.23 66.14 66.10 66.14 64.45 62.61 58.99 58.05 58.04 56.17 56.17 54.29 52.41 52.41 49.22 47.26 54.61 58.18 58.21 50.72 44.91 41.65 53.76 49.47 43.35 39.72 60.36 53.38 48.36 47.91 63.36 58.15 47.97 45.91 58.20 54.98

Click on individual weather variable above in left-hand column (ie., TEMP, RH, QPF 12HR) to view state forecast maps






NWS 48 Hr. Forecast Maps,

Regional Hourly Observations For BATH County, Kentucky
Issued at 300 PM EDT SUN OCT 22 2017
NORTHEAST KENTUCKY
  
CITY           SKY/WX    TMP DP  RH WIND       PRES   REMARKS
LEXINGTON      PTSUNNY   76  52  43 S16G26    30.15F                  
COVINGTON      PTSUNNY   74  57  55 S14       30.11F                  
FRANKFORT      CLOUDY    74  51  44 S14       30.13F                  


Current NOWCAST not available:
Nowcasts are not issued routinely during fair weather. Only when
precipitation or other significant weather is occuring in this county will these
forecasts be issued. Currently, there is no short term forecast in effect.


Fire Weather Forecast For BATH County, KY
Provided by the National Weather Service:

Issued at: Sun Oct 22 15:05:01 EDT 2017

.TODAY...
Sky/weather.........Sunny. 
Max Temperature.....Around 78. 
   24 hr trend......1 degree warmer. 
Min Humidity........31-41 percent. 
   24 hr trend......2 percent wetter. 
Wind (20 ft)........South winds around 10 mph. 
LAL.................1. 
Haines Index........5 or moderate potential for large plume 
                    dominated fire growth. 
Mixing Height.......3800 ft agl. 
Transport Winds.....South 5 to 10 mph increasing to around 15 mph 
                    early in the afternoon. 
Dispersion Index....45. 
Vent Rate...........Fair (45300 knot-ft). 
ADI.................9 increasing to 49 in the afternoon. 
LVORI...............4. 
Prob of precip......0 percent. 
QPF (inches)........None. 

.TONIGHT...
Sky/weather.........Partly cloudy early then becoming mostly cloudy. 
                    A chance of rain showers after midnight. 
Min Temperature.....Around 59. 
   24 hr trend......11 degrees warmer. 
Max Humidity........95 percent. 
   24 hr trend......6 percent drier. 
Wind (20 ft)........Southeast winds 5 to 10 mph. 
LAL.................1. 
Haines Index........3 or very low potential for large plume 
                    dominated fire growth. 
ADI.................32 decreasing to 9 late. 
LVORI...............5. 
Prob of precip......30 percent. 
QPF (inches)........0.05 inches. 

.MONDAY...
Sky/weather.........Cloudy. Rain showers. 
Max Temperature.....Around 68. 
   24 hr trend......10 degrees cooler. 
Min Humidity........73-83 percent. 
   24 hr trend......42 percent wetter. 
Wind (20 ft)........South winds 5 to 10 mph. 
LAL.................1. 
Haines Index........3 or very low potential for large plume 
                    dominated fire growth. 
Mixing Height.......1700 ft agl. 
Transport Winds.....Southeast 10 to 15 mph. 
Dispersion Index....31. 
Vent Rate...........Marginal (31100 knot-ft). 
ADI.................14 increasing to 37 in the afternoon. 
LVORI...............5. 
Prob of precip......9370 percent. 
QPF (inches)........0.80 - 1.06 inches. 

SPC's Fire Weather Web Tool (Excellent!), SPC's Fire Weather Outlooks, NWS Fire Weather WEB, Fire Danger Class Map,
Keetch-Byram Drought Index, ROMAN Web, Haines Index ,
WFAS's 10-hr Dead Fuel Moist., WFAS's 100-hr Dead Fuel Moist., Probablity of Ignition, Visual blackness Map, Palmer Drought Index, HPC's Rainfall Forecast Maps


Hazardous Weather Outlook For BATH County, Kentucky
403 AM EDT Sun Oct 22 2017

 DAY ONE  Today and Tonight.

No hazardous weather is expected at this time.

 DAYS TWO THROUGH SEVEN  Monday through Saturday.

Frost will be possible Thursday morning, particularly in the 
sheltered valley areas.

 SPOTTER INFORMATION STATEMENT  

Spotter activation is not anticipated.

Latest BATH County, Kentucky Watches, Warnings and Advisories.
Additional Drought Info.: UKAWC Drought Page, Kentucky Drought Watch


7-Day Forecast For BATH County, KY

REST OF TODAY
Warm, sunny. Highs in the upper 70s. South winds around 10 mph.

TONIGHT
Partly cloudy in the evening, then a slight chance of showers. Mostly cloudy with a chance of showers late. Lows in the upper 50s. Light winds. Chance of rain 50 percent.

MONDAY
Showers. Highs in the upper 60s. Light winds. Chance of rain near 100 percent.

MONDAY NIGHT
Showers in the evening, then a chance of showers late. Lows in the upper 40s. Light winds. Chance of rain 80 percent.

TUESDAY
Partly sunny. A chance of showers in the morning, then a slight chance of showers in the afternoon. Highs in the upper 50s. West winds around 10 mph. Chance of rain 30 percent.

TUESDAY NIGHT
Mostly cloudy. Lows in the upper 30s.

WEDNESDAY
Partly sunny with a 20 percent chance of rain showers. Highs in the lower 50s.

WEDNESDAY NIGHT
Cold. Partly cloudy with a 20 percent chance of rain showers. Areas of frost. Lows in the mid 30s.

THURSDAY
Sunny. Highs in the lower 60s.

THURSDAY NIGHT
Mostly clear. Lows in the mid 40s.

FRIDAY
Mostly sunny with a 30 percent chance of showers. Highs in the mid 60s.

FRIDAY NIGHT
Mostly cloudy with a 40 percent chance of showers. Lows in the lower 40s.

SATURDAY
Partly sunny with a 40 percent chance of showers. Highs around 60.

Ag Weather Center, Department of Biosystems & Agricultural Engineering, University of Kentucky